Terug naar catalogus

COSMOS 1191 DEB

ActiefHEO
NORAD 27898·DEBRIS·🇷🇺 Russia

Gelanceerd Jul 2, 1980 vanaf Plesetsk Cosmodrome

Loading…

Volgende Passages (komende 24 uur)

TLE

VersSource: Space-Track

Epoch: Sep 13, 2026, 16:00 UTC

1 27898U 80057L   26256.66667851 -.00000217  00000-0  00000-0 0  9991
2 27898  64.7769  45.6182 6981617  30.2591 355.8438  1.99718998 44712

Volg COSMOS 1191 DEB in realtime met AllMySat

Download on the App Store